Location: ??????
(30.5519°N, 47.7720°E)
Time: 17:18:45
(UTC+00:00)

Meteor 1-11 - Pass Details

Date: 24 January 2021
Orbit: 840 x 887 km, 81.2° (Epoch: 01 March)

Event Time Altitude Azimuth Distance (km) Brightness Sun altitude
Rises 15:46:08 0° 191° (S) 3,456 7.7 -19.0°
Reaches altitude 10° 15:48:35 10° 192° (SSW) 2,515 6.9 -19.5°
Maximum altitude 15:54:18 75° 278° (W) 899 4.4 -20.7°
Drops below altitude 10° 15:59:58 10° 3° (N) 2,496 6.5 -21.9°
Sets 16:02:24 0° 6° (N) 3,428 7.2 -22.4°
